SL-14 R/B (20262 NORAD) Tracking and Keplerian Element Data

This shows tracking and keplerian element data for the satellite.

Feedback or suggestion? Click here.




ElementValue
Catalog20262
NameSL-14 R/B
Epoch Orbit47067
Epoch Day16.1505272
Epoch Year2022
RAAN63.8817
Inclination82.5921
Eccentricity0.12374
Argument of Perigee39.9391
Mean Anonmoly328.6391
Mean Motion12.49006774
Decay Rate1.57E-06
L11 20262U 89080C 22016.15052720 .00000157 00000+0 39815-4 0 9992
L22 20262 82.5921 63.8817 1237400 39.9391 328.6391 12.49006774470671

Live tracking and technical data element details for SL-14 R/B (NORAD 20262). SL-14 R/B can be tracked NOW for your location showing map with azimuth and elevation plus other details from your city location.

Track the satellite on the map from your city or location and see movement details for azimuth, elevation, latitude, longitude, range, height, and movement on the map or in text.







IsCatalogInMostPopularTable: catalog: 20262, numindb: 321
Update: records affected: 1



GetName: 20262 SL-14 R/B

Hit Count: updated at: Mon, 17 Jan 2022 01:48:56 GMT